This is the latest recevied weather packets stored in our database for station/object WA0GMH-1. If no packets are shown the sender has not sent any weather packets the latest 10 day(s).
| Time | Temp. | Humidity | Pressure | Rain* | Wind** | Luminosity | Snow |
|---|---|---|---|---|---|---|---|
| 1777995939 | 8.89° C | 78% | 1013.9 hPa | 0 mm | - | - | - |
| 1777995536 | 8.89° C | 84% | 1013.8 hPa | 0 mm | - | - | - |
| 1777995134 | 8.33° C | 100% | 1013.8 hPa | 0 mm | - | - | - |
| 1777994732 | 8.33° C | 6% | 1013.9 hPa | 0 mm | - | - | - |
| 1777994330 | 7.78° C | 6% | 1013.9 hPa | 0 mm | - | - | - |
| 1777993927 | 7.78° C | 7% | 1014.1 hPa | 0 mm | - | - | - |
| 1777993525 | 7.22° C | 8% | 1014 hPa | 0 mm | - | - | - |
| 1777993123 | 7.22° C | 9% | 1013.9 hPa | 0 mm | - | - | - |
| 1777992721 | 6.67° C | 9% | 1013.7 hPa | 0 mm | - | - | - |
| 1777992318 | 6.67° C | 8% | 1013.8 hPa | 0 mm | - | - | - |
| 1777991916 | 6.67° C | 10% | 1013.7 hPa | 0 mm | - | - | - |
| 1777991514 | 6.11° C | 10% | 1013.4 hPa | 0 mm | - | - | - |
| 1777991112 | 6.11° C | 11% | 1013.4 hPa | 0 mm | - | - | - |
| 1777990709 | 6.11° C | 14% | 1013.3 hPa | 0 mm | - | - | - |
| 1777989905 | 5.56° C | 16% | 1013.3 hPa | 0 mm | - | - | - |
| 1777989503 | 5.56° C | 17% | 1013.5 hPa | 0 mm | - | - | - |
| 1777989100 | 5.56° C | 17% | 1013.5 hPa | 0 mm | - | - | - |
| 1777988698 | 5° C | 18% | 1013.3 hPa | 0 mm | - | - | - |
| 1777988296 | 5° C | 17% | 1013.3 hPa | 0 mm | - | - | - |
| 1777987894 | 5° C | 18% | 1013.2 hPa | 0 mm | - | - | - |
| 1777987491 | 5° C | 18% | 1013 hPa | 0 mm | - | - | - |
| 1777987089 | 4.44° C | 20% | 1013.1 hPa | 0 mm | - | - | - |
| 1777986687 | 4.44° C | 21% | 1012.9 hPa | 0 mm | - | - | - |
| 1777986285 | 4.44° C | 22% | 1012.9 hPa | 0 mm | - | - | - |
| 1777985882 | 4.44° C | 22% | 1012.6 hPa | 0 mm | - | - | - |
* Rain since midnight (hover to see other rain measurements)
** Current wind speed in m/s (hover to see current wind gust speed)